EW5857 Weather Reports


Display with metric or nautical units.
time (UTC)temp
F
wind
direction
speed
MPH
gust
MPH
rain 1hr
in
rain 24hr
in
rain mn
in
humidity
%
barometer
mb
20260507064623 48 39 4.0 10.0 0.00 0.00 0.00 84 1015.8
20260507064125 48 0 4.0 10.0 0.00 0.00 0.00 85 1015.8
20260507063122 47 21 4.0 5.0 0.00 0.00 0.00 89 1015.8
20260507062623 46 20 3.0 5.0 0.00 0.00 0.00 91 1015.8
20260507062123 46 348 2.0 4.0 0.00 0.00 0.00 92 1015.8
20260507061620 45 25 1.0 5.0 0.00 0.00 0.00 93 1015.8
20260507061118 45 25 2.0 5.0 0.00 0.00 0.00 93 1015.8
20260507060620 44 23 2.0 5.0 0.00 0.00 0.00 93 1015.8
20260507060118 44 11 1.0 3.0 0.00 0.00 0.00 93 1015.7
20260507054617 43 7 1.0 2.0 0.00 0.00 0.00 92 1015.7
20260507054118 43 7 0.0 0.0 0.00 0.00 0.00 92 1015.7
20260507053116 43 7 0.0 0.0 0.00 0.00 0.00 92 1015.5
20260507052616 43 7 0.0 0.0 0.00 0.00 0.00 92 1015.4
20260507052116 43 7 0.0 0.0 0.00 0.00 0.00 92 1015.4
20260507051617 43 7 0.0 0.0 0.00 0.00 0.00 92 1015.4
20260507051117 43 7 0.0 0.0 0.00 0.00 0.00 92 1015.3
20260507045613 42 7 0.0 0.0 0.00 0.00 0.00 91 1015.1
20260507045114 42 7 0.0 0.0 0.00 0.00 0.00 91 1015.1
20260507044612 42 7 0.0 0.0 0.00 0.00 0.00 91 1015.1
20260507044112 42 7 0.0 0.0 0.00 0.00 0.00 91 1015.1
20260507043612 42 7 0.0 0.0 0.00 0.00 0.00 91 1015.1
20260507042611 42 7 0.0 0.0 0.00 0.00 0.00 90 1015.0
20260507042111 42 7 0.0 0.0 0.00 0.00 0.00 90 1014.9
20260507041104 43 7 0.0 0.0 0.00 0.00 0.00 89 1014.9
20260507040603 43 7 0.0 0.0 0.00 0.00 0.00 89 1014.8
20260507040104 43 7 0.0 0.0 0.00 0.00 0.00 89 1014.8
20260507035604 43 7 0.0 0.0 0.00 0.00 0.00 89 1014.8
20260507035103 43 7 0.0 0.0 0.00 0.00 0.00 89 1014.7
20260507034104 44 7 0.0 0.0 0.00 0.00 0.00 88 1014.6
20260507033603 44 7 0.0 0.0 0.00 0.00 0.00 89 1014.5
20260507033103 44 7 0.0 0.0 0.00 0.00 0.00 88 1014.6
20260507032604 44 7 0.0 0.0 0.00 0.00 0.00 88 1014.5
20260507032105 44 7 0.0 1.0 0.00 0.00 0.00 88 1014.5
20260507031603 44 7 0.0 1.0 0.00 0.00 0.00 88 1014.5
20260507031103 45 7 0.0 1.0 0.00 0.00 0.00 88 1014.4
20260507030604 45 7 0.0 1.0 0.00 0.00 0.00 88 1014.4
20260507025605 45 7 0.0 2.0 0.00 0.00 0.00 87 1014.4
20260507025103 45 7 0.0 2.0 0.00 0.00 0.00 87 1014.4
20260507024603 46 7 0.0 1.0 0.00 0.00 0.00 87 1014.4
20260507024104 46 7 0.0 1.0 0.00 0.00 0.00 86 1014.4
20260507023605 46 7 0.0 1.0 0.00 0.00 0.00 86 1014.4
20260507023103 46 7 0.0 2.0 0.00 0.00 0.00 86 1014.4
20260507022605 46 7 1.0 2.0 0.00 0.00 0.00 86 1014.3
20260507021603 47 7 0.0 2.0 0.00 0.00 0.00 85 1014.2
20260507015603 47 7 0.0 2.0 0.00 0.00 0.00 85 1014.2
20260507015106 47 7 0.0 2.0 0.00 0.00 0.00 85 1014.1
20260507014103 47 7 1.0 3.0 0.00 0.00 0.00 85 1014.0
20260507013605 47 20 1.0 3.0 0.00 0.00 0.00 85 1013.9
20260507012604 47 28 2.0 5.0 0.00 0.00 0.00 85 1014.0
20260507012104 47 358 2.0 4.0 0.00 0.00 0.00 84 1014.0
20260507010605 47 344 1.0 6.0 0.00 0.00 0.00 84 1013.9
20260507005604 48 0 2.0 5.0 0.00 0.00 0.00 83 1013.8
20260507005105 48 312 2.0 5.0 0.00 0.00 0.00 83 1013.8
20260507004603 48 337 3.0 5.0 0.00 0.00 0.00 83 1013.8
20260507004103 48 0 2.0 5.0 0.00 0.00 0.00 83 1013.8
20260507003105 48 0 2.0 5.0 0.00 0.00 0.00 82 1013.7
20260507002604 48 21 2.0 5.0 0.00 0.00 0.00 82 1013.7
20260507002104 49 0 2.0 4.0 0.00 0.00 0.00 82 1013.7
20260507001605 49 355 2.0 7.0 0.00 0.00 0.00 82 1013.7
20260507001103 49 8 1.0 7.0 0.00 0.00 0.00 82 1013.6
20260506235606 49 0 2.0 5.0 0.00 0.00 0.00 81 1013.6
20260506235104 49 353 1.0 4.0 0.00 0.00 0.00 81 1013.6
20260506234104 50 338 3.0 10.0 0.00 0.00 0.00 80 1013.5
20260506233104 50 4 2.0 6.0 0.00 0.00 0.00 79 1013.5
20260506232604 50 18 3.0 9.0 0.00 0.00 0.00 79 1013.4
20260506231103 50 39 3.0 6.0 0.00 0.00 0.00 78 1013.5
20260506230603 51 30 3.0 9.0 0.00 0.00 0.00 78 1013.5
20260506225605 51 11 3.0 7.0 0.00 0.00 0.00 77 1013.3
20260506225103 51 45 3.0 6.0 0.00 0.00 0.00 77 1013.3
20260506224603 51 25 1.0 1.0 0.00 0.00 0.00 77 1013.3
20260506224104 51 30 2.0 5.0 0.00 0.00 0.00 77 1013.3
20260506223605 51 30 2.0 7.0 0.00 0.00 0.00 77 1013.3
20260506222606 51 21 2.0 5.0 0.00 0.00 0.00 77 1013.2
20260506222103 51 0 3.0 5.0 0.00 0.00 0.00 77 1013.2
20260506221604 51 11 2.0 4.0 0.00 0.00 0.00 77 1013.2
20260506221103 51 34 2.0 5.0 0.00 0.00 0.00 77 1013.2
20260506220603 51 31 2.0 5.0 0.00 0.00 0.00 77 1013.2
20260506220123 51 21 1.0 3.0 0.00 0.00 0.00 77 1013.2
20260506215602 51 21 2.0 4.0 0.00 0.00 0.00 77 1013.1
20260506215102 51 21 1.0 5.0 0.00 0.00 0.00 77 1013.1
20260506214559 52 13 2.0 5.0 0.00 0.00 0.00 77 1013.1
20260506213558 52 25 2.0 7.0 0.00 0.00 0.00 76 1012.9
20260506213057 52 14 3.0 6.0 0.00 0.00 0.00 77 1012.9
20260506212556 52 27 2.0 6.0 0.00 0.00 0.00 77 1012.9
20260506212057 52 3 3.0 6.0 0.00 0.00 0.00 77 1012.8
20260506211557 52 35 3.0 6.0 0.00 0.00 0.00 77 1012.8
20260506211055 52 35 4.0 6.0 0.00 0.00 0.00 77 1012.8
20260506210053 52 23 2.0 5.0 0.00 0.00 0.00 78 1012.7
20260506205553 52 32 2.0 5.0 0.00 0.00 0.00 78 1012.7
20260506205052 52 330 1.0 3.0 0.00 0.00 0.00 78 1012.6
20260506204551 52 312 2.0 3.0 0.00 0.00 0.00 78 1012.5
20260506204051 52 298 1.0 3.0 0.00 0.00 0.00 78 1012.5
20260506203553 52 286 0.0 4.0 0.00 0.00 0.00 78 1012.5
20260506203052 53 272 1.0 4.0 0.00 0.00 0.00 78 1012.4
20260506202045 53 52 0.0 1.0 0.00 0.00 0.00 77 1012.4
20260506201043 53 52 0.0 1.0 0.00 0.00 0.00 76 1012.4
20260506200541 53 52 0.0 1.0 0.00 0.00 0.00 76 1012.3
20260506200039 53 52 0.0 0.0 0.00 0.00 0.00 75 1012.3
20260506195038 53 52 0.0 0.0 0.00 0.00 0.00 74 1012.2
20260506194539 53 52 0.0 0.0 0.00 0.00 0.00 74 1012.2
20260506194037 53 52 0.0 0.0 0.00 0.00 0.00 73 1012.1
20260506192536 54 52 0.0 0.0 0.00 0.00 0.00 73 1011.9
20260506191533 54 52 0.0 0.0 0.00 0.00 0.00 72 1011.8
20260506191034 54 52 0.0 1.0 0.00 0.00 0.00 72 1011.7
20260506190033 54 52 0.0 0.0 0.00 0.00 0.00 71 1011.6
20260506185533 54 52 0.0 0.0 0.00 0.00 0.00 71 1011.5
20260506185032 55 52 0.0 1.0 0.00 0.00 0.00 71 1011.4
20260506184533 55 52 0.0 1.0 0.00 0.00 0.00 70 1011.3
20260506184032 55 52 0.0 0.0 0.00 0.00 0.00 70 1011.4
20260506183033 55 52 0.0 1.0 0.00 0.00 0.00 69 1011.3
20260506182533 55 52 0.0 1.0 0.00 0.00 0.00 69 1011.3
20260506182032 55 52 0.0 2.0 0.00 0.00 0.00 68 1011.2
20260506181032 55 52 1.0 2.0 0.00 0.00 0.00 68 1011.1
20260506180534 55 52 1.0 3.0 0.00 0.00 0.00 68 1011.1
20260506180034 55 52 1.0 3.0 0.00 0.00 0.00 67 1011.1
20260506175533 55 18 2.0 5.0 0.00 0.00 0.00 67 1011.0
20260506175033 55 18 1.0 5.0 0.00 0.00 0.00 66 1011.0
20260506174532 55 350 2.0 4.0 0.00 0.00 0.00 66 1010.9
20260506173532 56 63 1.0 3.0 0.00 0.00 0.00 66 1010.7
20260506173033 56 65 1.0 2.0 0.00 0.00 0.00 66 1010.6
20260506172028 56 65 1.0 2.0 0.00 0.00 0.00 66 1010.6
20260506171527 56 65 1.0 3.0 0.00 0.00 0.00 66 1010.5
20260506171023 56 65 1.0 3.0 0.00 0.00 0.00 66 1010.5
20260506170520 56 65 1.0 2.0 0.00 0.00 0.00 65 1010.4
20260506170024 56 65 1.0 4.0 0.00 0.00 0.00 65 1010.4
20260506165515 56 54 1.0 4.0 0.00 0.00 0.00 65 1010.4
20260506165013 56 110 2.0 4.0 0.00 0.00 0.00 64 1010.4
20260506164511 56 27 1.0 4.0 0.00 0.00 0.00 64 1010.5
20260506164010 56 27 2.0 4.0 0.00 0.00 0.00 63 1010.5
20260506163508 56 78 2.0 3.0 0.00 0.00 0.00 64 1010.5
20260506163010 56 80 2.0 3.0 0.00 0.00 0.00 64 1010.5
20260506162506 56 6 2.0 5.0 0.00 0.00 0.00 63 1010.5
20260506162006 57 0 2.0 5.0 0.00 0.00 0.00 62 1010.4
20260506161007 57 14 3.0 4.0 0.00 0.00 0.00 63 1010.4
20260506160010 57 94 3.0 6.0 0.00 0.00 0.00 63 1010.4
20260506155506 57 128 3.0 7.0 0.00 0.00 0.00 64 1010.4
20260506155006 56 138 3.0 7.0 0.00 0.00 0.00 64 1010.4
20260506154507 56 10 5.0 7.0 0.00 0.00 0.00 63 1010.4
20260506154007 56 82 2.0 7.0 0.00 0.00 0.00 64 1010.4
20260506153507 56 117 3.0 9.0 0.00 0.00 0.00 64 1010.4
20260506153005 56 114 3.0 9.0 0.00 0.00 0.00 64 1010.5
20260506152507 56 0 3.0 7.0 0.00 0.00 0.00 64 1010.4
20260506152004 57 113 4.0 10.0 0.00 0.00 0.00 64 1010.4
20260506151505 57 127 4.0 10.0 0.00 0.00 0.00 64 1010.5
20260506151007 56 23 4.0 10.0 0.00 0.00 0.00 63 1010.4
20260506150506 56 114 4.0 10.0 0.00 0.00 0.00 63 1010.4
20260506150008 56 31 3.0 9.0 0.00 0.00 0.00 62 1010.4
20260506145506 56 3 5.0 12.0 0.00 0.00 0.00 61 1010.4
20260506144506 56 17 4.0 7.0 0.00 0.00 0.00 61 1010.3
20260506144007 56 0 3.0 10.0 0.00 0.00 0.00 61 1010.3
20260506143505 56 31 5.0 13.0 0.00 0.00 0.00 60 1010.3
20260506143006 56 0 8.0 14.0 0.00 0.00 0.00 60 1010.4
20260506142504 56 6 7.0 14.0 0.00 0.00 0.00 60 1010.3
20260506142003 56 45 6.0 13.0 0.00 0.00 0.00 60 1010.2
20260506141507 56 18 5.0 9.0 0.00 0.00 0.00 61 1010.2
20260506140504 56 51 6.0 17.0 0.00 0.00 0.00 61 1010.3
20260506140003 56 21 9.0 17.0 0.00 0.00 0.00 61 1010.2
20260506135001 55 125 3.0 10.0 0.00 0.00 0.00 62 1010.2
20260506134504 55 20 5.0 13.0 0.00 0.00 0.00 63 1010.2
20260506134003 55 147 5.0 13.0 0.00 0.00 0.00 62 1010.2
20260506133502 55 30 4.0 10.0 0.00 0.00 0.00 62 1010.2
20260506133004 55 17 5.0 13.0 0.00 0.00 0.00 64 1010.2
20260506132502 56 13 4.0 17.0 0.00 0.00 0.00 63 1010.2
20260506131501 56 100 4.0 10.0 0.00 0.00 0.00 63 1010.2
20260506131000 56 140 3.0 19.0 0.00 0.00 0.00 63 1010.1
20260506130001 56 0 6.0 14.0 0.00 0.00 0.00 62 1010.1
20260506125001 56 320 5.0 13.0 0.00 0.00 0.00 61 1010.0
20260506124001 55 17 4.0 12.0 0.00 0.00 0.00 61 1009.9
20260506123502 56 0 5.0 12.0 0.00 0.00 0.00 61 1009.9
20260506123000 55 75 4.0 10.0 0.00 0.00 0.00 61 1010.0
20260506122501 55 0 5.0 11.0 0.00 0.00 0.00 61 1009.9
20260506122001 55 1 5.0 11.0 0.00 0.00 0.00 60 1009.9
20260506121500 55 0 4.0 14.0 0.00 0.00 0.00 61 1009.8
20260506120959 55 10 5.0 14.0 0.00 0.00 0.00 61 1009.8
20260506120502 55 21 6.0 12.0 0.00 0.00 0.00 60 1009.8
20260506120000 55 24 4.0 14.0 0.00 0.00 0.00 59 1009.8
20260506115500 56 7 6.0 14.0 0.00 0.00 0.00 60 1009.8
20260506115001 56 16 4.0 11.0 0.00 0.00 0.00 60 1009.8
20260506114001 56 31 7.0 17.0 0.00 0.00 0.00 58 1009.8
20260506113459 56 38 4.0 12.0 0.00 0.00 0.00 60 1009.7
20260506112959 56 39 6.0 12.0 0.00 0.00 0.00 61 1009.7
20260506112459 56 6 4.0 11.0 0.00 0.00 0.00 60 1009.7
20260506111959 56 6 5.0 10.0 0.00 0.00 0.00 65 1009.7
20260506111458 56 49 3.0 10.0 0.00 0.00 0.00 67 1009.6
20260506110958 56 20 4.0 10.0 0.00 0.00 0.00 68 1009.6
20260506110459 56 37 4.0 12.0 0.00 0.00 0.00 67 1009.6
20260506105958 56 18 4.0 12.0 0.00 0.00 0.00 66 1009.6
20260506105458 56 18 6.0 12.0 0.00 0.00 0.00 65 1009.6
20260506104458 56 347 4.0 12.0 0.00 0.00 0.00 64 1009.6
20260506103958 56 31 5.0 13.0 0.00 0.00 0.00 63 1009.6
20260506103457 56 61 7.0 13.0 0.00 0.00 0.00 64 1009.6
20260506102958 56 52 4.0 9.0 0.00 0.00 0.00 64 1009.6
20260506101957 56 23 7.0 15.0 0.00 0.00 0.00 62 1009.6
20260506100958 58 17 6.0 13.0 0.00 0.00 0.00 61 1009.5
20260506100457 58 0 5.0 13.0 0.00 0.00 0.00 60 1009.4
20260506095457 58 54 6.0 11.0 0.00 0.00 0.00 59 1009.3
20260506094957 58 44 3.0 11.0 0.00 0.00 0.00 61 1009.3
20260506094456 57 151 5.0 13.0 0.00 0.00 0.00 60 1009.3
20260506093956 57 39 4.0 13.0 0.00 0.00 0.00 60 1009.2
20260506093456 57 99 5.0 12.0 0.00 0.00 0.00 59 1009.3
20260506092958 57 1 6.0 12.0 0.00 0.00 0.00 59 1009.3
20260506092457 56 37 6.0 12.0 0.00 0.00 0.00 61 1009.2
20260506091455 56 0 6.0 16.0 0.00 0.00 0.00 60 1009.3
20260506090955 56 333 5.0 14.0 0.00 0.00 0.00 64 1009.2
20260506090455 55 47 6.0 14.0 0.00 0.00 0.00 61 1009.1
20260506085955 55 3 7.0 13.0 0.00 0.00 0.00 63 1009.1
20260506085456 56 14 7.0 19.0 0.00 0.00 0.00 63 1009.1
20260506084955 56 353 7.0 19.0 0.00 0.00 0.00 66 1009.0
20260506084455 56 336 5.0 14.0 0.00 0.00 0.00 66 1009.0
20260506083455 55 4 4.0 11.0 0.00 0.00 0.00 70 1009.0
20260506082955 55 35 4.0 5.0 0.00 0.00 0.00 70 1009.0
20260506082455 55 0 5.0 9.0 0.00 0.00 0.00 70 1009.0
20260506081954 55 20 5.0 9.0 0.00 0.00 0.00 71 1008.9
20260506081454 54 20 4.0 5.0 0.00 0.00 0.00 72 1008.8
20260506080954 54 20 4.0 10.0 0.00 0.00 0.00 73 1008.9
20260506080454 54 4 10.0 11.0 0.00 0.00 0.00 75 1008.8
20260506073459 53 0 4.0 11.0 0.00 0.00 0.00 81 1008.8
20260506072956 53 6 4.0 10.0 0.00 0.00 0.00 81 1008.7
20260506072453 53 10 3.0 11.0 0.00 0.00 0.00 81 1008.7
20260506071953 53 25 6.0 11.0 0.00 0.00 0.00 81 1008.7
20260506071452 53 0 4.0 13.0 0.00 0.00 0.00 81 1008.7
20260506070954 53 6 7.0 13.0 0.00 0.00 0.00 82 1008.6
20260506070453 52 30 2.0 12.0 0.00 0.00 0.00 82 1008.7